Tracking 28052 objects as of 22-Sep-2023
HD Live streaming from Space Station
objects crossing your sky now

STARLINK-4418

Track STARLINK-4418 now!
10-day predictions


NORAD ID: 53678
Int'l Code: 2022-105AG
Perigee: 567.4 km
Apogee: 572.9 km
Inclination: 97.7 °
Period: 95.9 minutes
Semi major axis: 6941 km
RCS: Unknown
Launch date: August 31, 2022
Source: United States (US)
Launch site: AIR FORCE WESTERN TEST RANGE (AFWTR)
Your satellite tracking list
Your tracking list is empty




NASA's NSSDC Master Catalog

Two Line Element Set (TLE):
1 53678U 22105AG  23264.93424735  .00008042  00000-0  62981-3 0  9996
2 53678  97.6533 144.6005 0003983  62.4562 297.7067 15.01268431 58240
Source of the keplerian elements: AFSPC